M I D A S
Marine Information and Data Acquisition System
Tripno 863 of the Zeeleeuw from 2005-03-15 07:17:54 to 2005-03-15 12:53:38
Back to CruiseResearch ActivitiesStationsMapUnderway DataData graphs

EquipmentUnitsComments
TimeDGPSUTC
LatitudeDGPSDM.mWGS84
LongitudeDGPSDM.mWGS84
SpeedMeteo Stationm/sRelative wind speed
DirectionMeteo StationdegRelative wind direction
TemperatureMeteo Stationdeg CelciusAir temperature
PressureMeteo StationPaAtmospheric pressure
HumidityMeteo Station%Relative humidity
Missing or incorrect values are displayed as -999
Metereological data collected by the RV Zeeleeuw from 2005-03-15 07:14:11 to 2005-03-15 13:03:22
Time Latitude Longitude Speed Direction Temperature Pressure Humidity
2005-03-15 07:15 51°13.619 2°56.027 2.4 115 3.7 101790 75
2005-03-15 07:16 51°13.653 2°55.917 4.4 110 3.7 101790 74
2005-03-15 07:17 51°13.673 2°55.811 4.2 153 3.7 101790 74
2005-03-15 07:18 51°13.686 2°55.791 2.4 162 3.7 101790 74
2005-03-15 07:19 51°13.752 2°55.74 3.2 295 3.8 101790 75
2005-03-15 07:20 51°13.862 2°55.61 0.9 256 3.9 101790 75
2005-03-15 07:21 51°14.012 2°55.498 3.5 307 3.9 101790 74
2005-03-15 07:22 51°14.167 2°55.379 3.2 328 4 101790 74
2005-03-15 07:23 51°14.302 2°55.186 6.4 310 4.1 101790 74
2005-03-15 07:24 51°14.437 2°54.951 7.6 291 4.2 101780 73
2005-03-15 07:25 51°14.614 2°54.754 6.3 278 4.3 101780 73
2005-03-15 07:26 51°14.819 2°54.759 2.9 126 4.3 101730 73
2005-03-15 07:27 51°14.925 2°54.839 7 185 4.3 101770 73
2005-03-15 07:28 51°14.987 2°54.874 3.8 197 4.5 101790 72
2005-03-15 07:29 51°15.033 2°54.882 5.9 202 4.6 101790 72
2005-03-15 07:30 51°15.081 2°54.866 8.8 239 4.5 101760 72
2005-03-15 07:31 51°15.179 2°54.803 7.4 269 4.5 101740 73
2005-03-15 07:32 51°15.36 2°54.698 6.2 277 4.5 101790 73
2005-03-15 07:33 51°15.552 2°54.51 7.9 296 4.5 101720 73
2005-03-15 07:34 51°15.729 2°54.28 8 297 4.5 101720 73
2005-03-15 07:35 51°15.91 2°54.045 7.8 294 4.5 101720 74
2005-03-15 07:36 51°16.095 2°53.827 8.4 282 4.5 101720 74
2005-03-15 07:37 51°16.284 2°53.624 6.9 287 4.5 101720 75
2005-03-15 07:38 51°16.479 2°53.423 6.1 289 4.5 101720 75
2005-03-15 07:39 51°16.671 2°53.218 5.2 286 4.5 101710 75
2005-03-15 07:40 51°16.862 2°53.018 5.7 291 4.5 101710 75
2005-03-15 07:41 51°17.049 2°52.82 5.9 298 4.5 101720 75
2005-03-15 07:42 51°17.244 2°52.622 5.1 298 4.5 101720 76
2005-03-15 07:43 51°17.439 2°52.43 5.3 301 4.5 101710 76
2005-03-15 07:44 51°17.651 2°52.268 5.3 303 4.5 101720 77
2005-03-15 07:45 51°17.867 2°52.164 3.8 277 4.5 101720 77
2005-03-15 07:46 51°18.091 2°52.129 0.6 260 4.6 101720 77
2005-03-15 07:47 51°18.306 2°52.22 1.3 80 4.7 101730 78
2005-03-15 07:48 51°18.498 2°52.408 3.5 104 4.8 101730 77
2005-03-15 07:49 51°18.684 2°52.608 2.8 81 4.8 101730 77
2005-03-15 07:50 51°18.853 2°52.84 4.4 85 4.7 101730 77
2005-03-15 07:51 51°19.018 2°53.073 3.9 98 4.6 101740 77
2005-03-15 07:52 51°19.182 2°53.302 3.9 95 4.5 101740 78
2005-03-15 07:53 51°19.348 2°53.528 4.1 95 4.4 101740 79
2005-03-15 07:54 51°19.514 2°53.753 3.8 103 4.4 101730 79
2005-03-15 07:55 51°19.676 2°53.985 4.3 106 4.3 101780 79
2005-03-15 07:56 51°19.84 2°54.218 3.8 103 4.3 101780 79
2005-03-15 07:57 51°20.001 2°54.448 4.5 110 4.3 101740 79
2005-03-15 07:58 51°20.165 2°54.682 4.7 95 4.3 101740 79
2005-03-15 07:59 51°20.326 2°54.912 3.9 119 4.4 101800 79
2005-03-15 08:00 51°20.49 2°55.148 3.8 112 4.4 101740 79
2005-03-15 08:01 51°20.656 2°55.381 3.7 106 4.4 101790 79
2005-03-15 08:02 51°20.819 2°55.617 3.2 122 4.4 101790 79
2005-03-15 08:03 51°20.985 2°55.857 3.6 114 4.5 101790 79
2005-03-15 08:04 51°21.147 2°56.09 3.7 111 4.5 101790 79
2005-03-15 08:05 51°21.309 2°56.329 3.6 114 4.5 101800 78
2005-03-15 08:06 51°21.468 2°56.571 3.7 127 4.6 101740 78
2005-03-15 08:07 51°21.629 2°56.809 3.8 108 4.6 101740 78
2005-03-15 08:08 51°21.79 2°57.05 3.7 88 4.6 101750 78
2005-03-15 08:09 51°21.953 2°57.293 3.9 105 4.7 101750 78
2005-03-15 08:10 51°22.115 2°57.537 3.5 112 4.7 101750 78
2005-03-15 08:11 51°22.277 2°57.781 4.1 110 4.7 101750 78
2005-03-15 08:12 51°22.439 2°58.024 3.7 87 4.7 101750 78
2005-03-15 08:13 51°22.6 2°58.273 4.6 97 4.7 101750 78
2005-03-15 08:14 51°22.759 2°58.516 3.5 116 4.7 101750 78
2005-03-15 08:15 51°22.926 2°58.763 3.7 88 4.7 101750 78
2005-03-15 08:16 51°23.091 2°59.011 3.5 104 4.8 101760 78
2005-03-15 08:17 51°23.25 2°59.258 4.1 84 4.8 101810 78
2005-03-15 08:18 51°23.406 2°59.515 4.4 118 4.8 101760 78
2005-03-15 08:19 51°23.565 2°59.773 4.2 116 4.8 101760 78
2005-03-15 08:20 51°23.722 3°0.029 3.4 118 4.9 101760 78
2005-03-15 08:21 51°23.878 3°0.286 4 122 4.9 101760 78
2005-03-15 08:22 51°24.032 3°0.543 3.8 121 4.9 101760 78
2005-03-15 08:23 51°24.185 3°0.795 3.8 114 5 101760 78
2005-03-15 08:24 51°24.334 3°1.056 4.2 118 5 101760 77
2005-03-15 08:25 51°24.48 3°1.313 4.2 121 5 101760 78
2005-03-15 08:26 51°24.63 3°1.569 3.8 109 5 101760 78
2005-03-15 08:27 51°24.782 3°1.827 3.7 118 5.1 101760 78
2005-03-15 08:28 51°24.937 3°2.085 4 114 5.1 101810 78
2005-03-15 08:29 51°25.085 3°2.334 4.3 95 5.1 101760 78
2005-03-15 08:30 51°25.231 3°2.592 3.8 -999 5.1 101760 78
2005-03-15 08:31 51°25.373 3°2.856 3.7 98 5.1 101770 78
2005-03-15 08:32 51°25.503 3°3.137 4.6 101 5.1 101770 78
2005-03-15 08:33 51°25.631 3°3.414 4 103 5.1 101770 78
2005-03-15 08:34 51°25.759 3°3.693 4.6 101 5.1 101760 78
2005-03-15 08:35 51°25.891 3°3.971 4.3 99 5.1 101760 78
2005-03-15 08:36 51°26.026 3°4.252 4.9 109 5.1 101760 78
2005-03-15 08:37 51°26.152 3°4.542 5.1 108 5.1 101760 78
2005-03-15 08:38 51°26.278 3°4.841 5.4 110 5.2 101750 78
2005-03-15 08:39 51°26.404 3°5.135 5.7 102 5.2 101760 78
2005-03-15 08:40 51°26.529 3°5.428 5 122 5.2 101760 78
2005-03-15 08:41 51°26.656 3°5.717 5.1 111 5.2 101750 78
2005-03-15 08:42 51°26.781 3°6.009 5.1 116 5.2 101750 78
2005-03-15 08:43 51°26.904 3°6.306 5.1 114 5.2 101750 78
2005-03-15 08:44 51°27.033 3°6.599 6 113 5.2 101750 78
2005-03-15 08:45 51°27.159 3°6.896 5.1 120 5.2 101800 78
2005-03-15 08:46 51°27.288 3°7.189 5.4 123 5.3 101760 78
2005-03-15 08:47 51°27.417 3°7.479 4 132 5.3 101760 77
2005-03-15 08:48 51°27.546 3°7.771 3.8 119 5.4 101760 77
2005-03-15 08:49 51°27.675 3°8.059 3.8 123 5.4 101760 77
2005-03-15 08:50 51°27.805 3°8.357 4.7 125 5.4 101760 77
2005-03-15 08:51 51°27.933 3°8.647 4.9 122 5.4 101760 77
2005-03-15 08:52 51°28.056 3°8.919 4.5 149 5.5 101760 77
2005-03-15 08:53 51°28.131 3°9.015 8.1 152 5.4 101800 77
2005-03-15 08:54 51°28.148 3°9.009 9.9 138 5.4 101800 77
2005-03-15 08:55 51°28.165 3°9.003 8.9 128 5.4 101780 77
2005-03-15 08:56 51°28.181 3°9 9 112 5.4 101780 77
2005-03-15 08:57 51°28.197 3°8.999 8.9 118 5.4 101790 77
2005-03-15 08:58 51°28.213 3°8.999 8.7 107 5.4 101780 77
2005-03-15 08:59 51°28.228 3°9.001 9.2 101 5.5 101780 77
2005-03-15 09:00 51°28.242 3°9.004 9.5 101 5.5 101790 78
2005-03-15 09:01 51°28.256 3°9.008 9.6 101 5.5 101780 78
2005-03-15 09:02 51°28.269 3°9.013 9.2 99 5.5 101780 78
2005-03-15 09:03 51°28.283 3°9.017 9.5 96 5.5 101780 78
2005-03-15 09:04 51°28.295 3°9.021 9.2 96 5.5 101790 78
2005-03-15 09:05 51°28.308 3°9.025 10.2 100 5.5 101790 78
2005-03-15 09:06 51°28.321 3°9.03 9.7 91 5.5 101790 78
2005-03-15 09:07 51°28.334 3°9.034 9.9 88 5.5 101790 78
2005-03-15 09:08 51°28.346 3°9.038 10.1 95 5.5 101790 78
2005-03-15 09:09 51°28.359 3°9.042 9.1 96 5.5 101780 78
2005-03-15 09:10 51°28.371 3°9.048 9.7 99 5.6 101790 78
2005-03-15 09:11 51°28.371 3°9.07 10.9 94 5.6 101780 78
2005-03-15 09:12 51°28.386 3°9.198 4.1 165 5.6 101780 78
2005-03-15 09:13 51°28.502 3°9.228 7.3 261 5.6 101790 78
2005-03-15 09:14 51°28.591 3°9.078 12.8 43 5.7 101780 78
2005-03-15 09:15 51°28.622 3°8.885 11.7 302 5.7 101770 78
2005-03-15 09:16 51°28.675 3°8.773 6 259 5.8 101790 77
2005-03-15 09:17 51°28.744 3°8.754 7.4 218 5.8 101810 77
2005-03-15 09:18 51°28.818 3°8.781 6.1 209 5.7 101820 77
2005-03-15 09:19 51°28.882 3°8.838 6.7 164 5.8 101830 78
2005-03-15 09:20 51°28.941 3°8.912 6.5 168 5.7 101840 77
2005-03-15 09:21 51°28.989 3°8.989 6.4 153 5.7 101810 77
2005-03-15 09:22 51°29.024 3°9.052 7.3 152 5.7 101810 78
2005-03-15 09:23 51°29.051 3°9.11 8.1 144 5.7 101810 78
2005-03-15 09:24 51°29.071 3°9.162 8.2 142 5.7 101820 78
2005-03-15 09:25 51°29.092 3°9.214 8.5 143 5.7 101820 78
2005-03-15 09:26 51°29.113 3°9.265 7.4 142 5.7 101820 78
2005-03-15 09:27 51°29.132 3°9.319 7.6 143 5.7 101820 78
2005-03-15 09:28 51°29.151 3°9.371 9.7 141 5.7 101820 78
2005-03-15 09:29 51°29.172 3°9.423 8.2 140 5.8 101810 78
2005-03-15 09:30 51°29.193 3°9.476 7.4 145 5.8 101820 78
2005-03-15 09:31 51°29.215 3°9.529 7.8 142 5.8 101820 78
2005-03-15 09:32 51°29.237 3°9.579 7.3 148 5.8 101830 78
2005-03-15 09:33 51°29.259 3°9.629 7.5 151 5.8 101820 78
2005-03-15 09:34 51°29.283 3°9.68 7.6 146 5.8 101820 78
2005-03-15 09:35 51°29.306 3°9.731 6.6 140 5.8 101830 78
2005-03-15 09:36 51°29.328 3°9.782 7.3 142 5.8 101830 78
2005-03-15 09:37 51°29.35 3°9.833 6.9 146 5.8 101830 79
2005-03-15 09:38 51°29.372 3°9.881 7.7 149 5.8 101830 79
2005-03-15 09:39 51°29.397 3°9.929 7.2 153 5.8 101830 79
2005-03-15 09:40 51°29.423 3°9.974 7.1 157 5.8 101840 79
2005-03-15 09:41 51°29.453 3°10.014 7.8 168 5.8 101840 79
2005-03-15 09:42 51°29.487 3°10.052 7.6 170 5.8 101840 78
2005-03-15 09:43 51°29.521 3°10.088 7.6 173 5.8 101840 79
2005-03-15 09:44 51°29.554 3°10.127 6.7 163 5.8 101840 79
2005-03-15 09:45 51°29.582 3°10.169 7.6 152 5.9 101840 79
2005-03-15 09:46 51°29.607 3°10.217 7.4 148 5.9 101840 79
2005-03-15 09:47 51°29.625 3°10.265 7.2 139 5.9 101830 79
2005-03-15 09:48 51°29.646 3°10.311 6.3 148 6 101840 79
2005-03-15 09:49 51°29.673 3°10.352 6.7 160 6 101850 79
2005-03-15 09:50 51°29.7 3°10.394 7.3 158 6 101840 78
2005-03-15 09:51 51°29.729 3°10.436 7.3 161 6 101840 78
2005-03-15 09:52 51°29.757 3°10.482 7.3 155 6 101840 78
2005-03-15 09:53 51°29.782 3°10.53 6.9 147 6.1 101840 78
2005-03-15 09:54 51°29.805 3°10.582 7 144 6.1 101830 78
2005-03-15 09:55 51°29.824 3°10.654 7.5 129 6.1 101850 78
2005-03-15 09:56 51°29.838 3°10.739 8.2 115 6.2 101840 78
2005-03-15 09:57 51°29.842 3°10.829 8.2 116 6.2 101850 78
2005-03-15 09:58 51°29.829 3°10.907 9.2 100 6.2 101850 78
2005-03-15 09:59 51°29.811 3°10.951 9.3 95 6.2 101850 78
2005-03-15 10:00 51°29.794 3°10.978 8.9 91 6.2 101850 78
2005-03-15 10:01 51°29.759 3°11.006 9.1 41 6.2 101840 78
2005-03-15 10:02 51°29.698 3°10.983 10.9 14 6.2 101840 79
2005-03-15 10:03 51°29.637 3°10.894 10 344 6.3 101850 78
2005-03-15 10:04 51°29.603 3°10.776 9.5 338 6.4 101850 78
2005-03-15 10:05 51°29.577 3°10.669 9.2 336 6.4 101850 77
2005-03-15 10:06 51°29.554 3°10.568 8.8 326 6.4 101850 77
2005-03-15 10:07 51°29.538 3°10.479 8.8 326 6.4 101860 77
2005-03-15 10:08 51°29.525 3°10.403 8.5 330 6.4 101860 77
2005-03-15 10:09 51°29.511 3°10.335 8 337 6.4 101870 78
2005-03-15 10:10 51°29.497 3°10.275 8.6 337 6.4 101870 78
2005-03-15 10:11 51°29.481 3°10.215 9.2 336 6.4 101870 78
2005-03-15 10:12 51°29.464 3°10.159 8.4 342 6.4 101870 78
2005-03-15 10:13 51°29.445 3°10.106 8.1 342 6.5 101870 78
2005-03-15 10:14 51°29.426 3°10.052 8.4 337 6.5 101880 78
2005-03-15 10:15 51°29.407 3°9.997 8.3 342 6.6 101870 77
2005-03-15 10:16 51°29.39 3°9.941 10.1 343 6.6 101880 77
2005-03-15 10:17 51°29.372 3°9.885 8.7 338 6.6 101870 77
2005-03-15 10:18 51°29.355 3°9.832 10 343 6.6 101880 77
2005-03-15 10:19 51°29.337 3°9.779 8.7 346 6.7 101880 77
2005-03-15 10:20 51°29.318 3°9.728 9.8 346 6.7 101880 77
2005-03-15 10:21 51°29.297 3°9.677 8.4 349 6.7 101880 77
2005-03-15 10:22 51°29.276 3°9.628 10.2 352 6.7 101880 77
2005-03-15 10:23 51°29.253 3°9.581 9.4 359 6.7 101880 76
2005-03-15 10:24 51°29.23 3°9.536 9 354 6.7 101880 76
2005-03-15 10:25 51°29.205 3°9.49 8.8 351 6.7 101880 77
2005-03-15 10:26 51°29.18 3°9.444 8.4 352 6.7 101880 77
2005-03-15 10:27 51°29.156 3°9.398 9.7 352 6.7 101880 76
2005-03-15 10:28 51°29.13 3°9.35 9.8 353 6.7 101880 76
2005-03-15 10:29 51°29.106 3°9.303 9.5 352 6.7 101870 76
2005-03-15 10:30 51°29.081 3°9.258 10.3 351 6.8 101880 76
2005-03-15 10:31 51°29.056 3°9.213 9.8 353 6.8 101880 76
2005-03-15 10:32 51°29.032 3°9.168 10 354 6.8 101870 76
2005-03-15 10:33 51°29.006 3°9.123 9.3 355 6.9 101870 76
2005-03-15 10:34 51°28.981 3°9.079 8.8 354 6.8 101870 76
2005-03-15 10:35 51°28.956 3°9.033 9.7 348 6.8 101870 76
2005-03-15 10:36 51°28.932 3°8.989 10.5 349 6.8 101870 76
2005-03-15 10:37 51°28.906 3°8.943 9.4 351 6.8 101870 76
2005-03-15 10:38 51°28.877 3°8.892 9.9 351 6.8 101860 76
2005-03-15 10:39 51°28.843 3°8.819 11.4 340 6.9 101850 76
2005-03-15 10:40 51°28.813 3°8.727 11.1 330 6.9 101840 75
2005-03-15 10:41 51°28.796 3°8.625 12.2 230 6.9 101840 75
2005-03-15 10:42 51°28.791 3°8.538 9 302 6.8 101850 75
2005-03-15 10:43 51°28.787 3°8.476 8.9 303 6.9 101840 75
2005-03-15 10:44 51°28.784 3°8.43 10 300 6.9 101850 75
2005-03-15 10:45 51°28.781 3°8.395 9.5 298 6.9 101860 75
2005-03-15 10:46 51°28.777 3°8.359 9.5 304 6.9 101870 75
2005-03-15 10:47 51°28.762 3°8.261 11.7 338 6.9 101860 75
2005-03-15 10:48 51°28.699 3°8.141 12.7 356 6.8 101860 75
2005-03-15 10:49 51°28.589 3°7.971 15 3 6.8 101830 76
2005-03-15 10:50 51°28.433 3°7.767 15.9 2 6.8 101830 75
2005-03-15 10:51 51°28.267 3°7.548 15.4 4 6.8 101830 75
2005-03-15 10:52 51°28.093 3°7.314 16.3 7 6.7 101820 76
2005-03-15 10:53 51°27.91 3°7.069 15.8 2 6.7 101820 76
2005-03-15 10:54 51°27.726 3°6.821 15.9 -999 6.6 101820 76
2005-03-15 10:55 51°27.542 3°6.567 15 359 6.6 101830 76
2005-03-15 10:56 51°27.373 3°6.299 15.3 359 6.7 101830 76
2005-03-15 10:57 51°27.203 3°6.028 16.1 357 6.7 101830 76
2005-03-15 10:58 51°27.032 3°5.755 17.3 356 6.7 101870 76
2005-03-15 10:59 51°26.859 3°5.483 18 354 6.8 101810 75
2005-03-15 11:00 51°26.681 3°5.205 17 356 7 101820 74
2005-03-15 11:01 51°26.505 3°4.932 15.6 353 7 101870 73
2005-03-15 11:02 51°26.33 3°4.665 16.5 354 7 101830 74
2005-03-15 11:03 51°26.13 3°4.437 16 15 6.9 101830 74
2005-03-15 11:04 51°25.892 3°4.439 15.9 25 6.9 101810 74
2005-03-15 11:05 51°25.644 3°4.455 16.5 23 6.8 101810 75
2005-03-15 11:06 51°25.408 3°4.532 15.3 37 6.8 101800 75
2005-03-15 11:07 51°25.186 3°4.669 14.7 35 6.7 101810 75
2005-03-15 11:08 51°24.966 3°4.795 15.2 29 6.7 101810 75
2005-03-15 11:09 51°24.728 3°4.827 16.3 25 6.8 101820 75
2005-03-15 11:10 51°24.497 3°4.773 15.9 11 6.9 101830 75
2005-03-15 11:11 51°24.271 3°4.645 16.9 11 7.1 101840 73
2005-03-15 11:12 51°24.053 3°4.482 16.9 8 7.2 101830 73
2005-03-15 11:13 51°23.849 3°4.315 16.8 10 7.2 101890 73
2005-03-15 11:14 51°23.641 3°4.128 16.8 7 7.2 101890 73
2005-03-15 11:15 51°23.437 3°3.92 16.3 8 7.3 101890 72
2005-03-15 11:16 51°23.233 3°3.71 16.2 14 7.4 101900 72
2005-03-15 11:17 51°23.028 3°3.503 16 11 7.4 101900 72
2005-03-15 11:18 51°22.824 3°3.298 15.3 12 7.4 101900 72
2005-03-15 11:19 51°22.62 3°3.097 15.1 9 7.3 101910 72
2005-03-15 11:20 51°22.427 3°2.862 15.1 11 7.3 101910 73
2005-03-15 11:21 51°22.238 3°2.618 14.6 9 7.3 101910 73
2005-03-15 11:22 51°22.078 3°2.315 13.7 4 7.3 101920 73
2005-03-15 11:23 51°21.939 3°1.998 14.3 2 7.3 101920 73
2005-03-15 11:24 51°21.8 3°1.682 14.3 1 7.3 101920 73
2005-03-15 11:25 51°21.658 3°1.361 13.5 2 7.3 101920 73
2005-03-15 11:26 51°21.528 3°1.04 13.1 3 7.2 101920 73
2005-03-15 11:27 51°21.401 3°0.719 12.1 2 7.2 101920 73
2005-03-15 11:28 51°21.27 3°0.391 12.4 1 7.2 101920 74
2005-03-15 11:29 51°21.139 3°0.057 12.4 360 7.1 101920 74
2005-03-15 11:30 51°21.009 2°59.725 12.8 3 7.1 101920 74
2005-03-15 11:31 51°20.881 2°59.398 13 1 7.1 101920 74
2005-03-15 11:32 51°20.753 2°59.07 13 3 7.1 101920 74
2005-03-15 11:33 51°20.623 2°58.741 13 2 7.1 101910 74
2005-03-15 11:34 51°20.49 2°58.402 14 5 7 101920 74
2005-03-15 11:35 51°20.361 2°58.071 14 3 7 101920 74
2005-03-15 11:36 51°20.232 2°57.737 13.4 2 7.1 101920 74
2005-03-15 11:37 51°20.098 2°57.394 13 4 7.1 101920 74
2005-03-15 11:38 51°19.966 2°57.056 13.4 2 7 101920 74
2005-03-15 11:39 51°19.835 2°56.719 13.5 1 6.9 101920 75
2005-03-15 11:40 51°19.703 2°56.376 13.9 358 7 101910 75
2005-03-15 11:41 51°19.571 2°56.028 12.7 359 7.1 101910 74
2005-03-15 11:42 51°19.439 2°55.684 12.6 359 7.2 101920 74
2005-03-15 11:43 51°19.317 2°55.335 11.7 357 7.2 101910 74
2005-03-15 11:44 51°19.189 2°54.975 12.3 357 7.1 101910 74
2005-03-15 11:45 51°19.067 2°54.63 13 353 7.1 101910 75
2005-03-15 11:46 51°18.945 2°54.282 12.9 357 7.2 101900 74
2005-03-15 11:47 51°18.817 2°53.93 13.7 359 7.2 101900 74
2005-03-15 11:48 51°18.694 2°53.588 14.3 355 7.2 101910 74
2005-03-15 11:49 51°18.556 2°53.243 14 358 7.2 101900 74
2005-03-15 11:50 51°18.404 2°52.934 14.5 3 7.2 101900 74
2005-03-15 11:51 51°18.227 2°52.66 14.5 9 7.3 101900 74
2005-03-15 11:52 51°18.005 2°52.481 14.3 15 7.3 101890 74
2005-03-15 11:53 51°17.781 2°52.34 13.9 17 7.3 101890 74
2005-03-15 11:54 51°17.555 2°52.206 14.5 23 7.3 101890 74
2005-03-15 11:55 51°17.314 2°52.144 14.2 27 7.3 101890 74
2005-03-15 11:56 51°17.073 2°52.131 14 28 7.3 101890 74
2005-03-15 11:57 51°16.839 2°52.156 13.1 44 7.4 101900 74
2005-03-15 11:58 51°16.652 2°52.359 12.2 58 7.5 101890 74
2005-03-15 11:59 51°16.478 2°52.602 12.5 57 7.5 101890 73
2005-03-15 12:00 51°16.303 2°52.844 11 55 7.6 101890 73
2005-03-15 12:01 51°16.133 2°53.08 12.6 59 7.6 101890 73
2005-03-15 12:02 51°16.04 2°53.359 9.9 83 7.8 101890 72
2005-03-15 12:03 51°15.982 2°53.484 10.7 84 8 101910 71
2005-03-15 12:04 51°15.948 2°53.506 9.8 66 8.2 101910 70
2005-03-15 12:05 51°15.926 2°53.504 9.7 61 8.3 101900 69
2005-03-15 12:06 51°15.909 2°53.5 9.9 63 8.4 101910 69
2005-03-15 12:07 51°15.895 2°53.494 9.2 70 8.5 101900 69
2005-03-15 12:08 51°15.886 2°53.489 9.1 71 8.5 101900 68
2005-03-15 12:09 51°15.879 2°53.484 10.3 86 8.5 101900 68
2005-03-15 12:10 51°15.875 2°53.48 9.9 101 8.5 101900 68
2005-03-15 12:11 51°15.87 2°53.475 9.2 107 8.5 101900 69
2005-03-15 12:12 51°15.866 2°53.47 9.5 106 8.5 101900 68
2005-03-15 12:13 51°15.86 2°53.466 9.6 108 8.6 101910 68
2005-03-15 12:14 51°15.856 2°53.461 9.5 116 8.6 101900 68
2005-03-15 12:15 51°15.852 2°53.457 10 110 8.7 101900 68
2005-03-15 12:16 51°15.847 2°53.454 9.8 99 8.7 101900 68
2005-03-15 12:17 51°15.842 2°53.45 8.1 97 8.7 101910 68
2005-03-15 12:18 51°15.837 2°53.445 9.5 98 8.7 101900 68
2005-03-15 12:19 51°15.831 2°53.44 9.7 95 8.6 101900 68
2005-03-15 12:20 51°15.826 2°53.435 8.6 99 8.5 101910 69
2005-03-15 12:21 51°15.821 2°53.431 9.3 94 8.4 101900 69
2005-03-15 12:22 51°15.816 2°53.428 8.2 99 8.4 101900 69
2005-03-15 12:23 51°15.81 2°53.425 8.2 96 8.4 101900 69
2005-03-15 12:24 51°15.804 2°53.423 8.5 96 8.4 101890 69
2005-03-15 12:25 51°15.798 2°53.421 9 88 8.4 101890 69
2005-03-15 12:26 51°15.793 2°53.419 9.2 90 8.5 101890 69
2005-03-15 12:27 51°15.788 2°53.418 11.4 102 8.5 101880 69
2005-03-15 12:28 51°15.785 2°53.418 11.6 102 8.7 101880 68
2005-03-15 12:29 51°15.782 2°53.417 10.6 106 8.9 101880 67
2005-03-15 12:30 51°15.779 2°53.416 10.6 106 8.9 101890 67
2005-03-15 12:31 51°15.776 2°53.416 9.2 102 8.9 101880 67
2005-03-15 12:32 51°15.772 2°53.416 9.3 99 8.8 101890 68
2005-03-15 12:33 51°15.768 2°53.416 10 100 8.7 101880 68
2005-03-15 12:34 51°15.765 2°53.417 10.1 97 8.7 101880 68
2005-03-15 12:35 51°15.763 2°53.418 11.3 98 8.8 101880 68
2005-03-15 12:36 51°15.761 2°53.42 10.3 91 8.8 101880 67
2005-03-15 12:37 51°15.729 2°53.455 10.4 67 8.9 101870 67
2005-03-15 12:38 51°15.673 2°53.506 9.5 67 8.9 101870 67
2005-03-15 12:39 51°15.608 2°53.571 9.5 71 8.7 101870 68
2005-03-15 12:40 51°15.531 2°53.641 10.9 69 8.7 101860 68
2005-03-15 12:41 51°15.454 2°53.711 10.5 72 8.8 101860 68
2005-03-15 12:42 51°15.38 2°53.799 9.4 80 8.9 101870 67
2005-03-15 12:43 51°15.308 2°53.895 8.2 79 9 101870 67
2005-03-15 12:44 51°15.214 2°54.031 11.1 74 8.9 101870 68
2005-03-15 12:45 51°15.108 2°54.183 11 72 9 101860 67
2005-03-15 12:46 51°15.007 2°54.325 10.3 73 9.1 101870 67
2005-03-15 12:47 51°14.938 2°54.402 8.5 74 9.3 101870 66
2005-03-15 12:48 51°14.894 2°54.442 8.6 76 9.3 101880 66
2005-03-15 12:49 51°14.859 2°54.473 8.6 80 9.3 101870 65
2005-03-15 12:50 51°14.815 2°54.529 11.2 89 9.4 101870 65
2005-03-15 12:51 51°14.726 2°54.698 12.1 64 9.5 101880 65
2005-03-15 12:52 51°14.552 2°54.869 12.2 56 9.7 101850 64
2005-03-15 12:53 51°14.377 2°55.053 12.4 67 10 101830 63
2005-03-15 12:54 51°14.244 2°55.293 8.3 50 10.4 101880 63
2005-03-15 12:55 51°14.117 2°55.419 9.5 32 10.7 101900 61
2005-03-15 12:56 51°14.001 2°55.506 7.7 32 10.9 101890 60
2005-03-15 12:57 51°13.886 2°55.594 9.1 22 11 101890 59
2005-03-15 12:58 51°13.77 2°55.698 7 51 11.1 101890 59
2005-03-15 12:59 51°13.701 2°55.82 8.6 58 11.2 101910 59
2005-03-15 13:00 51°13.648 2°55.939 4.2 43 11.2 101900 59
2005-03-15 13:01 51°13.617 2°56.031 6.1 85 11.2 101900 59
2005-03-15 13:02 51°13.599 2°56.09 9.6 84 11.2 101900 59
2005-03-15 13:03 51°13.595 2°56.102 10 106 11.2 101900 58